Location: Newark
(48.0000°N, 67.0000°E)
Time: 05:25:06
(UTC+00:00)

DUCHIFAT 1 - Pass Details

Date: 10 April 2020
Orbit: 586 x 604 km, 97.9° (Epoch: 27 May)

Event Time Altitude Azimuth Distance (km) Brightness Sun altitude
Rises 20:22:24 0° 19° (NNE) 2,834 ? -32.6°
Reaches altitude 10° 20:24:40 10° 27° (NNE) 1,926 ? -32.5°
Enters shadow 20:26:26 23° 40° (NE) 1,283 ? -32.4°
